| time (UTC) | temp C | wind direction | speed KPH | gust KPH | rain 1hr cm | rain 24hr cm | rain mn cm | humidity % | barometer mb |
| 20260510154832 | 26 | 156 | 6.4 | 8.0 | 0.00 | 0.00 | 0.00 | 87 | 1014.0 |
| 20260510154327 | 26 | 109 | 4.8 | 9.7 | 0.00 | 0.00 | 0.00 | 88 | 1014.2 |
| 20260510153822 | 26 | 111 | 6.4 | 9.7 | 0.00 | 0.00 | 0.00 | 88 | 1014.0 |
| 20260510153318 | 26 | 90 | 0.0 | 6.4 | 0.00 | 0.00 | 0.00 | 89 | 1014.1 |
| 20260510152815 | 26 | 141 | 6.4 | 11.3 | 0.00 | 0.00 | 0.00 | 87 | 1014.1 |
| 20260510152312 | 26 | 76 | 9.7 | 9.7 | 0.00 | 0.00 | 0.00 | 89 | 1014.1 |
| 20260510151809 | 26 | 148 | 0.0 | 6.4 | 0.00 | 0.00 | 0.00 | 88 | 1014.1 |
| 20260510151307 | 26 | 146 | 4.8 | 8.0 | 0.00 | 0.00 | 0.00 | 88 | 1013.9 |
| 20260510150802 | 26 | 77 | 3.2 | 4.8 | 0.00 | 0.00 | 0.00 | 88 | 1013.7 |
| 20260510150258 | 25 | 141 | 0.0 | 8.0 | 0.00 | 0.00 | 0.00 | 90 | 1014.0 |
| 20260510145754 | 26 | 108 | 3.2 | 14.5 | 0.00 | 0.00 | 0.00 | 88 | 1013.9 |
| 20260510145251 | 25 | 151 | 6.4 | 9.7 | 0.00 | 0.00 | 0.00 | 88 | 1014.1 |
| 20260510144747 | 25 | 114 | 3.2 | 8.0 | 0.00 | 0.00 | 0.00 | 89 | 1014.1 |
| 20260510144243 | 25 | 90 | 3.2 | 6.4 | 0.00 | 0.00 | 0.00 | 90 | 1014.2 |
| 20260510143738 | 25 | 47 | 4.8 | 9.7 | 0.00 | 0.00 | 0.00 | 90 | 1014.1 |
| 20260510143235 | 25 | 26 | 4.8 | 6.4 | 0.00 | 0.00 | 0.00 | 92 | 1014.0 |
| 20260510142731 | 24 | 65 | 9.7 | 14.5 | 0.00 | 0.00 | 0.00 | 92 | 1014.2 |
| 20260510142228 | 23 | 90 | 0.0 | 12.9 | 0.00 | 0.00 | 0.00 | 94 | 1014.5 |
| 20260510141725 | 23 | 103 | 1.6 | 8.0 | 0.00 | 0.00 | 0.00 | 96 | 1014.3 |
| 20260510141224 | 23 | 117 | 4.8 | 11.3 | 0.00 | 0.00 | 0.00 | 96 | 1014.3 |
| 20260510140720 | 22 | 87 | 4.8 | 11.3 | 0.00 | 0.00 | 0.00 | 97 | 1014.4 |
| 20260510140220 | 22 | 77 | 6.4 | 6.4 | 0.00 | 0.00 | 0.00 | 98 | 1014.3 |
| 20260510135714 | 22 | 25 | 4.8 | 9.7 | 0.00 | 0.00 | 0.00 | 98 | 1014.2 |
| 20260510135210 | 22 | 94 | 4.8 | 14.5 | 0.00 | 0.00 | 0.00 | 98 | 1014.0 |
| 20260510134708 | 22 | 85 | 6.4 | 11.3 | 0.00 | 0.00 | 0.00 | 99 | 1014.0 |
| 20260510134205 | 21 | 113 | 8.0 | 14.5 | 0.00 | 0.00 | 0.00 | 99 | 1014.1 |
| 20260510133700 | 21 | 90 | 8.0 | 11.3 | 0.00 | 0.00 | 0.00 | 99 | 1013.9 |
| 20260510133156 | 21 | 95 | 4.8 | 11.3 | 0.00 | 0.00 | 0.00 | 99 | 1013.9 |
| 20260510132653 | 21 | 97 | 6.4 | 16.1 | 0.00 | 0.00 | 0.00 | 99 | 1013.5 |
| 20260510132150 | 21 | 105 | 6.4 | 16.1 | 0.00 | 0.00 | 0.00 | 99 | 1013.6 |
| 20260510131648 | 21 | 90 | 1.6 | 20.9 | 0.00 | 0.00 | 0.00 | 99 | 1013.6 |
| 20260510131145 | 21 | 28 | 3.2 | 9.7 | 0.00 | 0.00 | 0.00 | 98 | 1013.4 |
| 20260510130641 | 22 | 63 | 6.4 | 9.7 | 0.00 | 0.00 | 0.00 | 97 | 1013.6 |
| 20260510130139 | 22 | 60 | 4.8 | 6.4 | 0.00 | 0.00 | 0.00 | 97 | 1013.0 |
| 20260510125635 | 21 | 73 | 4.8 | 9.7 | 0.00 | 0.00 | 0.00 | 97 | 1013.1 |
| 20260510125131 | 21 | 71 | 0.0 | 6.4 | 0.00 | 0.00 | 0.00 | 98 | 1012.9 |
| 20260510124628 | 21 | 95 | 3.2 | 8.0 | 0.00 | 0.00 | 0.00 | 99 | 1012.9 |
| 20260510124125 | 21 | 82 | 4.8 | 6.4 | 0.00 | 0.00 | 0.00 | 99 | 1012.9 |
| 20260510123620 | 20 | 98 | 1.6 | 9.7 | 0.00 | 0.00 | 0.00 | 99 | 1012.9 |
| 20260510123117 | 20 | 36 | 3.2 | 6.4 | 0.00 | 0.00 | 0.00 | 99 | 1012.5 |
| 20260510122612 | 20 | 65 | 3.2 | 3.2 | 0.00 | 0.00 | 0.00 | 99 | 1012.6 |
| 20260510122108 | 20 | 54 | 0.0 | 3.2 | 0.00 | 0.00 | 0.00 | 99 | 1012.4 |
| 20260510121606 | 19 | 83 | 1.6 | 3.2 | 0.00 | 0.00 | 0.00 | 99 | 1012.1 |
| 20260510121103 | 18 | 18 | 0.0 | 3.2 | 0.00 | 0.00 | 0.00 | 99 | 1011.9 |
| 20260510120601 | 18 | 66 | 0.0 | 0.0 | 0.00 | 0.00 | 0.00 | 99 | 1012.1 |
| 20260510120055 | 18 | 66 | 0.0 | 0.0 | 0.00 | 0.00 | 0.00 | 99 | 1011.9 |
| 20260510115552 | 18 | 66 | 0.0 | 0.0 | 0.00 | 0.00 | 0.00 | 99 | 1011.6 |
| 20260510115050 | 18 | 66 | 0.0 | 1.6 | 0.00 | 0.00 | 0.00 | 99 | 1011.7 |
| 20260510114545 | 18 | 90 | 0.0 | 0.0 | 0.00 | 0.00 | 0.00 | 99 | 1011.5 |
| 20260510114042 | 18 | 120 | 0.0 | 0.0 | 0.00 | 0.00 | 0.00 | 99 | 1011.5 |
| 20260510113537 | 18 | 120 | 0.0 | 0.0 | 0.00 | 0.00 | 0.00 | 99 | 1011.5 |
| 20260510113035 | 18 | 111 | 0.0 | 1.6 | 0.00 | 0.00 | 0.00 | 99 | 1011.5 |
| 20260510112531 | 18 | 84 | 0.0 | 1.6 | 0.00 | 0.00 | 0.00 | 99 | 1011.7 |
| 20260510112028 | 18 | 41 | 0.0 | 4.8 | 0.00 | 0.00 | 0.00 | 99 | 1011.3 |
| 20260510111524 | 19 | 90 | 3.2 | 4.8 | 0.00 | 0.00 | 0.00 | 99 | 1011.5 |
| 20260510111020 | 18 | 60 | 3.2 | 4.8 | 0.00 | 0.00 | 0.00 | 99 | 1011.4 |
| 20260510110516 | 19 | 53 | 0.0 | 3.2 | 0.00 | 0.00 | 0.00 | 99 | 1011.2 |
| 20260510110013 | 19 | 9 | 3.2 | 4.8 | 0.00 | 0.00 | 0.00 | 99 | 1011.1 |
| 20260510105508 | 19 | 15 | 0.0 | 3.2 | 0.00 | 0.00 | 0.00 | 99 | 1011.0 |
| 20260510105003 | 19 | 23 | 3.2 | 3.2 | 0.00 | 0.00 | 0.00 | 99 | 1010.9 |
| 20260510104500 | 19 | 0 | 1.6 | 3.2 | 0.00 | 0.00 | 0.00 | 99 | 1010.6 |
| 20260510103956 | 19 | 352 | 0.0 | 1.6 | 0.00 | 0.00 | 0.00 | 99 | 1010.4 |
| 20260510103454 | 19 | 14 | 0.0 | 1.6 | 0.00 | 0.00 | 0.00 | 99 | 1010.5 |
| 20260510102949 | 20 | 283 | 0.0 | 1.6 | 0.00 | 0.00 | 0.00 | 99 | 1010.2 |
| 20260510102445 | 20 | 157 | 0.0 | 3.2 | 0.00 | 0.00 | 0.00 | 99 | 1010.2 |
| 20260510101942 | 20 | 235 | 0.0 | 3.2 | 0.00 | 0.00 | 0.00 | 99 | 1009.8 |
| 20260510101440 | 20 | 225 | 0.0 | 4.8 | 0.00 | 0.00 | 0.00 | 99 | 1010.2 |
| 20260510100938 | 20 | 119 | 3.2 | 3.2 | 0.00 | 0.00 | 0.00 | 99 | 1010.0 |
| 20260510100434 | 20 | 41 | 0.0 | 3.2 | 0.00 | 0.00 | 0.00 | 99 | 1010.0 |
| 20260510095930 | 20 | 81 | 0.0 | 1.6 | 0.00 | 0.00 | 0.00 | 99 | 1009.9 |
| 20260510095426 | 20 | 112 | 0.0 | 3.2 | 0.00 | 0.00 | 0.00 | 99 | 1010.0 |
| 20260510094925 | 20 | 203 | 0.0 | 0.0 | 0.00 | 0.00 | 0.00 | 98 | 1009.9 |
| 20260510094420 | 20 | 203 | 0.0 | 1.6 | 0.00 | 0.00 | 0.00 | 98 | 1010.0 |
| 20260510093917 | 20 | 254 | 0.0 | 0.0 | 0.00 | 0.00 | 0.00 | 98 | 1009.8 |
| 20260510093412 | 20 | 241 | 0.0 | 3.2 | 0.00 | 0.00 | 0.00 | 98 | 1009.9 |
| 20260510092910 | 20 | 106 | 0.0 | 3.2 | 0.00 | 0.00 | 0.00 | 97 | 1010.0 |
| 20260510092407 | 20 | 99 | 0.0 | 1.6 | 0.00 | 0.00 | 0.00 | 97 | 1010.0 |
| 20260510091907 | 20 | 233 | 3.2 | 3.2 | 0.00 | 0.00 | 0.00 | 97 | 1009.8 |
| 20260510091404 | 21 | 135 | 3.2 | 4.8 | 0.00 | 0.00 | 0.00 | 96 | 1009.8 |
| 20260510090901 | 21 | 120 | 0.0 | 4.8 | 0.00 | 0.00 | 0.00 | 96 | 1009.9 |
| 20260510090357 | 21 | 240 | 0.0 | 3.2 | 0.00 | 0.00 | 0.00 | 96 | 1009.8 |
| 20260510085853 | 21 | 239 | 3.2 | 12.9 | 0.00 | 0.00 | 0.00 | 95 | 1009.9 |
| 20260510085348 | 21 | 210 | 3.2 | 8.0 | 0.00 | 0.00 | 0.00 | 95 | 1009.8 |
| 20260510084844 | 21 | 156 | 6.4 | 8.0 | 0.00 | 0.00 | 0.00 | 95 | 1009.7 |
| 20260510084342 | 21 | 222 | 4.8 | 8.0 | 0.00 | 0.00 | 0.00 | 95 | 1009.8 |
| 20260510083838 | 21 | 212 | 4.8 | 6.4 | 0.00 | 0.00 | 0.00 | 94 | 1010.0 |
| 20260510083335 | 21 | 236 | 4.8 | 8.0 | 0.00 | 0.00 | 0.00 | 94 | 1010.1 |
| 20260510082830 | 21 | 197 | 0.0 | 4.8 | 0.00 | 0.00 | 0.00 | 94 | 1010.2 |
| 20260510082327 | 21 | 257 | 0.0 | 8.0 | 0.00 | 0.00 | 0.00 | 94 | 1010.0 |
| 20260510081826 | 21 | 221 | 3.2 | 6.4 | 0.00 | 0.00 | 0.00 | 93 | 1010.0 |
| 20260510081317 | 21 | 195 | 3.2 | 6.4 | 0.00 | 0.00 | 0.00 | 93 | 1010.1 |
| 20260510080813 | 21 | 238 | 0.0 | 9.7 | 0.00 | 0.00 | 0.00 | 93 | 1010.2 |
| 20260510080308 | 21 | 199 | 4.8 | 9.7 | 0.00 | 0.00 | 0.00 | 93 | 1010.2 |
| 20260510075805 | 21 | 235 | 6.4 | 11.3 | 0.00 | 0.00 | 0.00 | 92 | 1010.3 |
| 20260510075306 | 22 | 173 | 4.8 | 11.3 | 0.00 | 0.00 | 0.00 | 92 | 1010.1 |
| 20260510074759 | 21 | 200 | 1.6 | 4.8 | 0.00 | 0.00 | 0.00 | 92 | 1010.2 |
| 20260510074256 | 21 | 180 | 1.6 | 8.0 | 0.00 | 0.00 | 0.00 | 92 | 1010.4 |
| 20260510073752 | 22 | 183 | 4.8 | 4.8 | 0.00 | 0.00 | 0.00 | 92 | 1010.3 |
| 20260510073248 | 22 | 152 | 6.4 | 9.7 | 0.00 | 0.00 | 0.00 | 91 | 1010.3 |
| 20260510072744 | 22 | 206 | 3.2 | 12.9 | 0.00 | 0.00 | 0.00 | 91 | 1010.1 |
| 20260510072241 | 22 | 204 | 0.0 | 11.3 | 0.00 | 0.00 | 0.00 | 91 | 1010.2 |
| 20260510071737 | 22 | 180 | 3.2 | 9.7 | 0.00 | 0.00 | 0.00 | 91 | 1010.1 |
| 20260510071234 | 22 | 188 | 0.0 | 12.9 | 0.00 | 0.00 | 0.00 | 91 | 1010.4 |
| 20260510070733 | 22 | 180 | 1.6 | 11.3 | 0.00 | 0.00 | 0.00 | 90 | 1010.1 |
| 20260510070229 | 22 | 174 | 4.8 | 12.9 | 0.00 | 0.00 | 0.00 | 90 | 1010.0 |
| 20260510065724 | 22 | 152 | 3.2 | 8.0 | 0.00 | 0.00 | 0.00 | 90 | 1010.2 |
| 20260510065221 | 22 | 165 | 6.4 | 9.7 | 0.00 | 0.00 | 0.00 | 90 | 1010.3 |
| 20260510064717 | 22 | 206 | 0.0 | 8.0 | 0.00 | 0.00 | 0.00 | 89 | 1010.4 |
| 20260510064215 | 22 | 165 | 3.2 | 6.4 | 0.00 | 0.00 | 0.00 | 89 | 1010.4 |
| 20260510063711 | 22 | 180 | 1.6 | 11.3 | 0.00 | 0.00 | 0.00 | 89 | 1010.5 |
| 20260510063207 | 22 | 140 | 9.7 | 12.9 | 0.00 | 0.00 | 0.00 | 89 | 1010.4 |
| 20260510062704 | 22 | 144 | 0.0 | 9.7 | 0.00 | 0.00 | 0.00 | 89 | 1010.5 |
| 20260510062201 | 22 | 75 | 1.6 | 6.4 | 0.00 | 0.00 | 0.00 | 89 | 1010.3 |
| 20260510061655 | 22 | 263 | 0.0 | 8.0 | 0.00 | 0.00 | 0.00 | 89 | 1010.5 |
| 20260510061153 | 22 | 145 | 4.8 | 8.0 | 0.00 | 0.00 | 0.00 | 89 | 1010.4 |
| 20260510060649 | 22 | 110 | 0.0 | 8.0 | 0.00 | 0.00 | 0.00 | 89 | 1010.5 |
| 20260510060146 | 22 | 97 | 0.0 | 6.4 | 0.00 | 0.00 | 0.00 | 90 | 1010.6 |
| 20260510055642 | 22 | 147 | 4.8 | 4.8 | 0.00 | 0.00 | 0.00 | 90 | 1010.5 |
| 20260510055140 | 22 | 114 | 4.8 | 4.8 | 0.00 | 0.00 | 0.00 | 90 | 1010.3 |
| 20260510054636 | 21 | 84 | 0.0 | 1.6 | 0.00 | 0.00 | 0.00 | 91 | 1010.6 |
| 20260510054132 | 21 | 69 | 0.0 | 4.8 | 0.00 | 0.00 | 0.00 | 91 | 1010.4 |
| 20260510053631 | 21 | 45 | 0.0 | 3.2 | 0.00 | 0.00 | 0.00 | 91 | 1010.4 |
| 20260510053128 | 21 | 120 | 0.0 | 3.2 | 0.00 | 0.00 | 0.00 | 91 | 1010.4 |
| 20260510052623 | 21 | 90 | 0.0 | 3.2 | 0.00 | 0.00 | 0.00 | 91 | 1010.5 |
| 20260510052119 | 22 | 75 | 0.0 | 3.2 | 0.00 | 0.00 | 0.00 | 91 | 1010.5 |
| 20260510051609 | 22 | 105 | 0.0 | 3.2 | 0.00 | 0.00 | 0.00 | 91 | 1010.5 |
| 20260510051107 | 22 | 159 | 0.0 | 6.4 | 0.00 | 0.00 | 0.00 | 91 | 1010.3 |
| 20260510050604 | 21 | 99 | 0.0 | 3.2 | 0.00 | 0.00 | 0.00 | 92 | 1010.3 |
| 20260510050100 | 21 | 355 | 0.0 | 4.8 | 0.00 | 0.00 | 0.00 | 92 | 1010.4 |
| 20260510045558 | 21 | 106 | 4.8 | 9.7 | 0.00 | 0.00 | 0.00 | 94 | 1010.3 |
| 20260510045054 | 21 | 112 | 4.8 | 9.7 | 0.00 | 0.00 | 0.00 | 96 | 1010.3 |
| 20260510044550 | 20 | 106 | 0.0 | 9.7 | 0.00 | 0.00 | 0.00 | 99 | 1010.4 |
| 20260510044048 | 20 | 132 | 3.2 | 4.8 | 0.00 | 0.00 | 0.00 | 99 | 1010.6 |
| 20260510043543 | 20 | 82 | 0.0 | 1.6 | 0.00 | 0.00 | 0.00 | 99 | 1010.4 |
| 20260510043039 | 20 | 0 | 0.0 | 0.0 | 0.00 | 0.00 | 0.00 | 99 | 1010.1 |
| 20260510042533 | 20 | 0 | 0.0 | 1.6 | 0.00 | 0.00 | 0.00 | 99 | 1010.1 |
| 20260510042028 | 20 | 66 | 0.0 | 0.0 | 0.00 | 0.00 | 0.00 | 99 | 1010.4 |
| 20260510041526 | 20 | 69 | 0.0 | 0.0 | 0.00 | 0.00 | 0.00 | 99 | 1010.4 |
| 20260510041023 | 20 | 352 | 0.0 | 3.2 | 0.00 | 0.00 | 0.00 | 99 | 1010.2 |
| 20260510040519 | 20 | 0 | 0.0 | 0.0 | 0.00 | 0.00 | 0.00 | 99 | 1010.3 |
| 20260510040014 | 20 | 66 | 0.0 | 1.6 | 0.00 | 0.00 | 0.00 | 99 | 1010.3 |
| 20260510035512 | 20 | 74 | 0.0 | 0.0 | 0.00 | 0.00 | 0.00 | 99 | 1010.2 |
| 20260510035010 | 20 | 74 | 0.0 | 1.6 | 0.00 | 0.00 | 0.00 | 98 | 1010.0 |
| 20260510034510 | 20 | 90 | 0.0 | 0.0 | 0.00 | 0.00 | 0.00 | 98 | 1009.9 |
| 20260510034006 | 20 | 90 | 0.0 | 0.0 | 0.00 | 0.00 | 0.00 | 98 | 1009.6 |
| 20260510033503 | 20 | 90 | 0.0 | 0.0 | 0.00 | 0.00 | 0.00 | 98 | 1009.6 |
| 20260510033001 | 20 | 90 | 0.0 | 0.0 | 0.00 | 0.00 | 0.00 | 98 | 1009.8 |
| 20260510032457 | 21 | 90 | 0.0 | 0.0 | 0.00 | 0.00 | 0.00 | 98 | 1009.4 |
| 20260510031957 | 21 | 15 | 0.0 | 0.0 | 0.00 | 0.00 | 0.00 | 98 | 1009.3 |
| 20260510031453 | 21 | 15 | 0.0 | 0.0 | 0.00 | 0.00 | 0.00 | 98 | 1009.5 |
| 20260510030949 | 21 | 15 | 0.0 | 0.0 | 0.00 | 0.00 | 0.00 | 97 | 1009.1 |
| 20260510030444 | 21 | 15 | 0.0 | 1.6 | 0.00 | 0.00 | 0.00 | 97 | 1009.4 |
| 20260510025942 | 21 | 90 | 1.6 | 4.8 | 0.00 | 0.00 | 0.00 | 97 | 1009.3 |
| 20260510025439 | 21 | 234 | 1.6 | 3.2 | 0.00 | 0.00 | 0.00 | 96 | 1009.2 |
| 20260510024937 | 21 | 99 | 0.0 | 0.0 | 0.00 | 0.00 | 0.00 | 95 | 1009.1 |
| 20260510024433 | 21 | 99 | 0.0 | 1.6 | 0.00 | 0.00 | 0.00 | 95 | 1009.3 |
| 20260510023929 | 21 | 71 | 1.6 | 3.2 | 0.00 | 0.00 | 0.00 | 94 | 1009.0 |
| 20260510023425 | 21 | 66 | 0.0 | 0.0 | 0.00 | 0.00 | 0.00 | 93 | 1009.0 |
| 20260510022923 | 22 | 66 | 0.0 | 3.2 | 0.00 | 0.00 | 0.00 | 93 | 1009.0 |
| 20260510022421 | 22 | 63 | 0.0 | 3.2 | 0.00 | 0.00 | 0.00 | 93 | 1008.9 |
| 20260510021921 | 22 | 345 | 0.0 | 1.6 | 0.00 | 0.00 | 0.00 | 92 | 1008.9 |
| 20260510021419 | 22 | 7 | 0.0 | 1.6 | 0.00 | 0.00 | 0.00 | 92 | 1008.8 |
| 20260510020915 | 22 | 90 | 0.0 | 0.0 | 0.00 | 0.00 | 0.00 | 91 | 1008.9 |
| 20260510020410 | 22 | 90 | 0.0 | 0.0 | 0.00 | 0.00 | 0.00 | 90 | 1008.7 |
| 20260510015906 | 22 | 66 | 0.0 | 0.0 | 0.00 | 0.00 | 0.00 | 89 | 1008.6 |
| 20260510015402 | 23 | 66 | 0.0 | 0.0 | 0.00 | 0.00 | 0.00 | 89 | 1008.5 |
| 20260510014857 | 23 | 74 | 0.0 | 3.2 | 0.00 | 0.00 | 0.00 | 89 | 1008.4 |
| 20260510014355 | 23 | 286 | 0.0 | 3.2 | 0.00 | 0.00 | 0.00 | 88 | 1008.3 |
| 20260510013851 | 23 | 270 | 0.0 | 0.0 | 0.00 | 0.00 | 0.00 | 86 | 1008.3 |
| 20260510013347 | 24 | 234 | 0.0 | 1.6 | 0.00 | 0.00 | 0.00 | 86 | 1008.0 |
| 20260510012841 | 24 | 206 | 0.0 | 0.0 | 0.00 | 0.00 | 0.00 | 86 | 1008.1 |
| 20260510012336 | 24 | 209 | 0.0 | 4.8 | 0.00 | 0.00 | 0.00 | 86 | 1008.1 |
| 20260510011831 | 25 | 195 | 0.0 | 1.6 | 0.00 | 0.00 | 0.00 | 85 | 1008.3 |
| 20260510011326 | 25 | 29 | 0.0 | 3.2 | 0.00 | 0.00 | 0.00 | 84 | 1008.1 |
| 20260510010823 | 25 | 98 | 0.0 | 1.6 | 0.00 | 0.00 | 0.00 | 85 | 1007.9 |
| 20260510010321 | 25 | 147 | 0.0 | 3.2 | 0.00 | 0.00 | 0.00 | 84 | 1007.8 |
| 20260510005817 | 26 | 90 | 0.0 | 0.0 | 0.00 | 0.00 | 0.00 | 82 | 1007.8 |
| 20260510005313 | 26 | 270 | 0.0 | 0.0 | 0.00 | 0.00 | 0.00 | 79 | 1007.8 |
| 20260510004811 | 27 | 279 | 1.6 | 3.2 | 0.00 | 0.00 | 0.00 | 78 | 1008.0 |
| 20260510004308 | 27 | 249 | 0.0 | 0.0 | 0.00 | 0.00 | 0.00 | 77 | 1007.7 |
| 20260510003806 | 27 | 249 | 0.0 | 1.6 | 0.00 | 0.00 | 0.00 | 76 | 1007.7 |
| 20260510003303 | 27 | 209 | 0.0 | 4.8 | 0.00 | 0.00 | 0.00 | 76 | 1007.7 |
| 20260510002801 | 27 | 225 | 4.8 | 4.8 | 0.00 | 0.00 | 0.00 | 75 | 1007.7 |
| 20260510002259 | 28 | 215 | 4.8 | 8.0 | 0.00 | 0.00 | 0.00 | 73 | 1007.6 |
| 20260510001755 | 28 | 259 | 3.2 | 4.8 | 0.00 | 0.00 | 0.00 | 73 | 1007.7 |
| 20260510001254 | 28 | 156 | 3.2 | 3.2 | 0.00 | 0.00 | 0.00 | 71 | 1007.6 |
| 20260510000749 | 28 | 209 | 1.6 | 4.8 | 0.00 | 0.00 | 0.00 | 71 | 1007.8 |
| 20260510000248 | 28 | 206 | 4.8 | 6.4 | 0.00 | 0.00 | 0.00 | 71 | 1007.6 |
| 20260509235744 | 28 | 161 | 0.0 | 8.0 | 0.00 | 0.00 | 0.00 | 70 | 1007.6 |
| 20260509235240 | 28 | 234 | 1.6 | 9.7 | 0.00 | 0.00 | 0.00 | 71 | 1007.8 |
| 20260509234736 | 28 | 207 | 6.4 | 9.7 | 0.00 | 0.00 | 0.00 | 70 | 1007.8 |
| 20260509234233 | 28 | 212 | 4.8 | 16.1 | 0.00 | 0.00 | 0.00 | 71 | 1007.6 |
| 20260509233731 | 31 | 225 | 4.8 | 11.3 | 0.00 | 0.00 | 0.00 | 72 | 1007.6 |
| 20260509233228 | 31 | 79 | 3.2 | 6.4 | 0.00 | 0.00 | 0.00 | 73 | 1007.5 |
| 20260509232724 | 31 | 180 | 0.0 | 6.4 | 0.00 | 0.00 | 0.00 | 73 | 1007.4 |
| 20260509232222 | 31 | 84 | 3.2 | 4.8 | 0.00 | 0.00 | 0.00 | 75 | 1007.6 |
| 20260509231718 | 31 | 95 | 6.4 | 9.7 | 0.00 | 0.00 | 0.00 | 74 | 1007.7 |
| 20260509231215 | 32 | 103 | 1.6 | 4.8 | 0.00 | 0.00 | 0.00 | 73 | 1007.4 |
| 20260509230713 | 31 | 157 | 0.0 | 6.4 | 0.00 | 0.00 | 0.00 | 74 | 1007.2 |
| 20260509230209 | 31 | 99 | 4.8 | 8.0 | 0.00 | 0.00 | 0.00 | 73 | 1007.2 |
| 20260509225705 | 32 | 95 | 3.2 | 4.8 | 0.00 | 0.00 | 0.00 | 71 | 1007.1 |
| 20260509225201 | 32 | 150 | 0.0 | 3.2 | 0.00 | 0.00 | 0.00 | 70 | 1007.3 |
| 20260509224656 | 31 | 74 | 0.0 | 0.0 | 0.00 | 0.00 | 0.00 | 70 | 1007.1 |
| 20260509224154 | 32 | 62 | 9.7 | 9.7 | 0.00 | 0.00 | 0.00 | 70 | 1006.9 |
| 20260509223650 | 32 | 0 | 3.2 | 6.4 | 0.00 | 0.00 | 0.00 | 71 | 1007.3 |
| 20260509223148 | 32 | 352 | 0.0 | 0.0 | 0.00 | 0.00 | 0.00 | 70 | 1006.9 |
| 20260509222645 | 31 | 68 | 8.0 | 8.0 | 0.00 | 0.00 | 0.00 | 72 | 1007.0 |
| 20260509222140 | 31 | 60 | 1.6 | 6.4 | 0.00 | 0.00 | 0.00 | 75 | 1006.9 |
| 20260509221636 | 30 | 19 | 3.2 | 6.4 | 0.00 | 0.00 | 0.00 | 76 | 1006.7 |
| 20260509221132 | 30 | 7 | 0.0 | 3.2 | 0.00 | 0.00 | 0.00 | 80 | 1006.8 |
| 20260509220628 | 30 | 14 | 0.0 | 3.2 | 0.00 | 0.00 | 0.00 | 81 | 1006.9 |
| 20260509220124 | 30 | 20 | 0.0 | 1.6 | 0.00 | 0.00 | 0.00 | 82 | 1006.8 |
| 20260509215620 | 30 | 8 | 0.0 | 0.0 | 0.00 | 0.00 | 0.00 | 79 | 1006.9 |
| 20260509215117 | 30 | 8 | 0.0 | 0.0 | 0.00 | 0.00 | 0.00 | 82 | 1007.1 |
| 20260509214614 | 30 | 15 | 0.0 | 1.6 | 0.00 | 0.00 | 0.00 | 80 | 1007.2 |
| 20260509214111 | 30 | 352 | 0.0 | 0.0 | 0.00 | 0.00 | 0.00 | 79 | 1007.0 |
| 20260509213607 | 30 | 66 | 0.0 | 3.2 | 0.00 | 0.00 | 0.00 | 79 | 1007.0 |
| 20260509213104 | 30 | 26 | 0.0 | 1.6 | 0.00 | 0.00 | 0.00 | 78 | 1007.2 |
| 20260509212601 | 31 | 8 | 0.0 | 1.6 | 0.00 | 0.00 | 0.00 | 76 | 1007.4 |
| 20260509212058 | 30 | 15 | 0.0 | 1.6 | 0.00 | 0.00 | 0.00 | 74 | 1007.4 |
| 20260509211554 | 30 | 23 | 0.0 | 3.2 | 0.00 | 0.00 | 0.00 | 77 | 1007.2 |
| 20260509211050 | 31 | 37 | 0.0 | 3.2 | 0.00 | 0.00 | 0.00 | 77 | 1007.7 |
| 20260509210548 | 31 | 270 | 0.0 | 1.6 | 0.00 | 0.00 | 0.00 | 73 | 1007.5 |
| 20260509210044 | 31 | 334 | 0.0 | 4.8 | 0.00 | 0.00 | 0.00 | 71 | 1007.7 |
| 20260509205538 | 31 | 37 | 4.8 | 8.0 | 0.00 | 0.00 | 0.00 | 71 | 1007.4 |
| 20260509205034 | 32 | 275 | 3.2 | 9.7 | 0.00 | 0.00 | 0.00 | 74 | 1007.7 |
| 20260509204530 | 32 | 346 | 4.8 | 6.4 | 0.00 | 0.00 | 0.00 | 70 | 1007.4 |
| 20260509204027 | 32 | 14 | 0.0 | 6.4 | 0.00 | 0.00 | 0.00 | 74 | 1007.6 |
| 20260509203522 | 32 | 7 | 1.6 | 3.2 | 0.00 | 0.00 | 0.00 | 74 | 1007.5 |
| 20260509203022 | 31 | 263 | 0.0 | 3.2 | 0.00 | 0.00 | 0.00 | 72 | 1007.6 |
| 20260509202520 | 31 | 243 | 0.0 | 4.8 | 0.00 | 0.00 | 0.00 | 72 | 1008.1 |
| 20260509202017 | 31 | 294 | 1.6 | 6.4 | 0.00 | 0.00 | 0.00 | 75 | 1008.0 |
| 20260509201511 | 31 | 0 | 0.0 | 1.6 | 0.00 | 0.00 | 0.00 | 76 | 1008.0 |
| 20260509201009 | 31 | 14 | 1.6 | 4.8 | 0.00 | 0.00 | 0.00 | 72 | 1008.2 |
| 20260509200504 | 31 | 206 | 0.0 | 3.2 | 0.00 | 0.00 | 0.00 | 74 | 1008.1 |
| 20260509200001 | 32 | 206 | 4.8 | 6.4 | 0.00 | 0.00 | 0.00 | 72 | 1008.3 |
| 20260509195456 | 31 | 228 | 3.2 | 6.4 | 0.00 | 0.00 | 0.00 | 76 | 1008.2 |
| 20260509194956 | 31 | 180 | 0.0 | 6.4 | 0.00 | 0.00 | 0.00 | 74 | 1008.3 |
| 20260509194451 | 31 | 114 | 0.0 | 4.8 | 0.00 | 0.00 | 0.00 | 73 | 1008.4 |
| 20260509193948 | 31 | 20 | 1.6 | 4.8 | 0.00 | 0.00 | 0.00 | 75 | 1008.3 |
| 20260509193443 | 30 | 180 | 0.0 | 1.6 | 0.00 | 0.00 | 0.00 | 78 | 1008.3 |
| 20260509192939 | 30 | 228 | 4.8 | 6.4 | 0.00 | 0.00 | 0.00 | 76 | 1008.3 |
| 20260509192436 | 32 | 206 | 0.0 | 6.4 | 0.00 | 0.00 | 0.00 | 72 | 1008.3 |
| 20260509191931 | 30 | 0 | 0.0 | 0.0 | 0.00 | 0.00 | 0.00 | 74 | 1008.4 |
| 20260509191426 | 30 | 151 | 3.2 | 3.2 | 0.00 | 0.00 | 0.00 | 75 | 1008.6 |
| 20260509190923 | 30 | 243 | 0.0 | 4.8 | 0.00 | 0.00 | 0.00 | 76 | 1008.7 |
| 20260509190420 | 30 | 221 | 8.0 | 11.3 | 0.00 | 0.00 | 0.00 | 77 | 1008.8 |
| 20260509185918 | 31 | 254 | 0.0 | 6.4 | 0.00 | 0.00 | 0.00 | 74 | 1008.7 |
| 20260509185415 | 31 | 8 | 0.0 | 4.8 | 0.00 | 0.00 | 0.00 | 75 | 1008.9 |
| 20260509184911 | 30 | 57 | 4.8 | 6.4 | 0.00 | 0.00 | 0.00 | 74 | 1008.8 |
| 20260509184409 | 30 | 208 | 4.8 | 4.8 | 0.00 | 0.00 | 0.00 | 74 | 1008.8 |
| 20260509183905 | 30 | 299 | 3.2 | 9.7 | 0.00 | 0.00 | 0.00 | 73 | 1009.1 |
| 20260509183359 | 30 | 248 | 4.8 | 8.0 | 0.00 | 0.00 | 0.00 | 75 | 1009.3 |
| 20260509182856 | 31 | 221 | 3.2 | 3.2 | 0.00 | 0.00 | 0.00 | 77 | 1009.3 |
| 20260509182353 | 30 | 110 | 4.8 | 4.8 | 0.00 | 0.00 | 0.00 | 80 | 1009.4 |
| 20260509181851 | 30 | 57 | 4.8 | 8.0 | 0.00 | 0.00 | 0.00 | 80 | 1009.1 |
| 20260509181348 | 29 | 8 | 3.2 | 4.8 | 0.00 | 0.00 | 0.00 | 82 | 1009.7 |
| 20260509180845 | 28 | 327 | 3.2 | 4.8 | 0.00 | 0.00 | 0.00 | 84 | 1009.6 |
| 20260509180340 | 28 | 282 | 0.0 | 4.8 | 0.00 | 0.00 | 0.00 | 85 | 1009.7 |
| 20260509175838 | 28 | 55 | 4.8 | 8.0 | 0.00 | 0.00 | 0.00 | 84 | 1009.9 |
| 20260509175334 | 29 | 350 | 4.8 | 4.8 | 0.00 | 0.00 | 0.00 | 82 | 1009.9 |
| 20260509174830 | 30 | 233 | 3.2 | 8.0 | 0.00 | 0.00 | 0.00 | 82 | 1010.0 |
| 20260509174326 | 29 | 0 | 0.0 | 4.8 | 0.00 | 0.00 | 0.00 | 82 | 1009.9 |
| 20260509173822 | 29 | 81 | 0.0 | 4.8 | 0.00 | 0.00 | 0.00 | 83 | 1010.0 |
| 20260509173318 | 28 | 232 | 3.2 | 6.4 | 0.00 | 0.00 | 0.00 | 83 | 1010.1 |
| 20260509172814 | 28 | 253 | 4.8 | 9.7 | 0.00 | 0.00 | 0.00 | 85 | 1010.1 |
| 20260509172311 | 27 | 243 | 4.8 | 6.4 | 0.00 | 0.00 | 0.00 | 87 | 1010.3 |
| 20260509171806 | 27 | 300 | 0.0 | 4.8 | 0.00 | 0.00 | 0.00 | 87 | 1010.2 |
| 20260509171303 | 27 | 294 | 3.2 | 4.8 | 0.00 | 0.00 | 0.00 | 88 | 1010.2 |
| 20260509170759 | 27 | 202 | 4.8 | 6.4 | 0.00 | 0.00 | 0.00 | 88 | 1010.0 |
| 20260509170255 | 27 | 225 | 3.2 | 4.8 | 0.00 | 0.00 | 0.00 | 88 | 1010.3 |
| 20260509165754 | 27 | 109 | 3.2 | 3.2 | 0.00 | 0.00 | 0.00 | 89 | 1010.1 |
| 20260509165249 | 26 | 160 | 0.0 | 3.2 | 0.00 | 0.00 | 0.00 | 90 | 1010.1 |
| 20260509164746 | 26 | 174 | 1.6 | 6.4 | 0.00 | 0.00 | 0.00 | 91 | 1010.5 |
| 20260509164242 | 26 | 221 | 3.2 | 6.4 | 0.00 | 0.00 | 0.00 | 91 | 1010.4 |
| 20260509163744 | 26 | 220 | 3.2 | 4.8 | 0.00 | 0.00 | 0.00 | 92 | 1010.2 |
| 20260509163235 | 26 | 154 | 4.8 | 4.8 | 0.00 | 0.00 | 0.00 | 91 | 1010.2 |
| 20260509162734 | 26 | 241 | 3.2 | 4.8 | 0.00 | 0.00 | 0.00 | 90 | 1010.3 |
| 20260509162228 | 26 | 157 | 0.0 | 3.2 | 0.00 | 0.00 | 0.00 | 91 | 1010.1 |
| 20260509161724 | 26 | 106 | 0.0 | 1.6 | 0.00 | 0.00 | 0.00 | 91 | 1010.0 |
| 20260509161220 | 26 | 270 | 1.6 | 4.8 | 0.00 | 0.00 | 0.00 | 92 | 1010.0 |
| 20260509160715 | 26 | 243 | 3.2 | 4.8 | 0.00 | 0.00 | 0.00 | 91 | 1010.2 |
| 20260509160212 | 26 | 82 | 1.6 | 3.2 | 0.00 | 0.00 | 0.00 | 91 | 1010.1 |
| 20260509155707 | 26 | 243 | 0.0 | 4.8 | 0.00 | 0.00 | 0.00 | 92 | 1010.2 |
| 20260509155204 | 26 | 212 | 4.8 | 8.0 | 0.00 | 0.00 | 0.00 | 92 | 1010.2 |